This is the latest recevied weather packets stored in our database for station/object W2GUX. If no packets are shown the sender has not sent any weather packets the latest 10 day(s).
| Time | Temp. | Humidity | Pressure | Rain* | Wind** | Luminosity | Snow |
|---|---|---|---|---|---|---|---|
| 1778140203 | 10° C | 89% | 1006.7 hPa | 1.27 mm | - | - | - |
| 1778139904 | 10° C | 89% | 1006.9 hPa | 1.02 mm | - | - | - |
| 1778139604 | 10° C | 89% | 1006.7 hPa | 1.52 mm | - | - | - |
| 1778139304 | 10° C | 89% | 1006.8 hPa | 1.78 mm | - | - | - |
| 1778139003 | 10.56° C | 89% | 1006.7 hPa | 2.03 mm | - | - | - |
| 1778138703 | 10.56° C | 89% | 1006.6 hPa | 1.78 mm | - | - | - |
| 1778138403 | 10.56° C | 88% | 1006.6 hPa | 1.52 mm | - | - | - |
| 1778138103 | 10.56° C | 88% | 1006.7 hPa | 1.52 mm | - | - | - |
| 1778137804 | 10.56° C | 88% | 1006.6 hPa | 1.52 mm | - | - | - |
| 1778137503 | 10.56° C | 88% | 1006.7 hPa | 1.52 mm | - | - | - |
| 1778137203 | 10.56° C | 87% | 1006.6 hPa | 1.52 mm | - | - | - |
| 1778136903 | 10.56° C | 87% | 1006.7 hPa | 1.52 mm | - | - | - |
| 1778136604 | 11.11° C | 87% | 1006.4 hPa | 1.27 mm | - | - | - |
| 1778136304 | 11.11° C | 87% | 1006.2 hPa | 1.02 mm | - | - | - |
| 1778136004 | 11.11° C | 86% | 1006.8 hPa | 1.02 mm | - | - | - |
| 1778135703 | 11.11° C | 86% | 1006.5 hPa | 0.76 mm | - | - | - |
| 1778135404 | 11.11° C | 85% | 1006.4 hPa | 0.51 mm | - | - | - |
| 1778135104 | 11.11° C | 85% | 1006.3 hPa | 0.76 mm | - | - | - |
| 1778134804 | 11.11° C | 84% | 1006.2 hPa | 0.76 mm | - | - | - |
| 1778134503 | 11.67° C | 84% | 1006.3 hPa | 0.76 mm | - | - | - |
| 1778134203 | 11.67° C | 84% | 1006.4 hPa | 0.76 mm | - | - | - |
| 1778133904 | 11.67° C | 83% | 1006.2 hPa | 0.76 mm | - | - | - |
| 1778133604 | 11.67° C | 82% | 1006.2 hPa | 0.51 mm | - | - | - |
| 1778133303 | 11.67° C | 81% | 1006.1 hPa | 0.51 mm | - | - | - |
| 1778133004 | 11.67° C | 81% | 1006.2 hPa | 0.51 mm | - | - | - |
* Rain latest hour (hover to see other rain measurements)
** Current wind speed in m/s (hover to see current wind gust speed)